Volver al catálogo

LYRA-4

ActivoCienciaPO
NORAD 64691·PAYLOAD·🇦🇺 Australia

Lanzado Jun 28, 2025 desde Rocket Lab Launch Complex 1

Loading…

Próximos Pases (próximas 24 horas)

TLE

ActualizadoSource: Space-Track

Época: Sep 14, 2026, 05:33 UTC

1 64691U 25140A   26257.23184202  .00000997  00000-0  16093-3 0  9999
2 64691  96.0100 354.5247 0010646 267.4098  92.5896 14.72684455 65160

Sigue LYRA-4 en tiempo real con AllMySat

Download on the App Store